Weather History for KBDN - August, 2014

Change the Weather History Date:

Monday, August 18, 2014

  Actual Average (KRDM) Record (KRDM)
Temperature  
Mean Temperature 70 °F 65 °F  
Max Temperature 86 °F 85 °F 103 °F (1967)
Min Temperature 53 °F 45 °F 31 °F (1973)
Degree Days  
Heating Degree Days 0 3  
Month to date heating degree days 35  
Since 1 June heating degree days 321  
Since 1 July heating degree days 104  
Cooling Degree Days 4 2  
Month to date cooling degree days 59  
Year to date cooling degree days 185  
Since 1 June cooling degree days 180  
Growing Degree Days 20 (Base 50)    
Moisture  
Dew Point 48 °F    
Average Humidity 48    
Maximum Humidity 88    
Minimum Humidity 22    
Precipitation  
Precipitation 0.00 in 0.02 in 0.78 in (2008)
Month to date precipitation 0.29  
Year to date precipitation 5.52  
Sea Level Pressure  
Sea Level Pressure 30.01 in    
Wind  
Wind Speed 3 mph (NNW)    
Max Wind Speed 14 mph    
Max Gust Speed 17 mph    
Visibility 10 miles    
Events      
T = Trace of Precipitation, MM = Missing Value Source: NWS Daily Summary

Daily Weather History Graph

Daily Weather History Graph

Search for Another Location

Airport or City:

Trip Planner

Search our weather history database for the weather conditions in past years. The results will help you decide how hot, cold, wet, or windy it might be!

Date:

Astronomy

Aug. 18, 2014 Rise Set
Actual Time 6:12 AM PDT 8:04 PM PDT
Civil Twilight 5:40 AM PDT 8:35 PM PDT
Nautical Twilight 5:02 AM PDT 9:13 PM PDT
Astronomical Twilight 4:21 AM PDT 9:54 PM PDT
Moon 12:20 AM PDT (8/18) 3:15 PM PDT (8/18)
Length of Visible Light 14h 54m
Length of Day
13h 52m
Last Quarter, 37% of the Moon is Illuminated
Aug 18
Last Quarter
Aug 25
New
Sep 2
First Quarter
Sep 8
Full
Sep 15
Last Quarter

Hourly Weather History & Observations

Time (PDT) Temp. Dew Point Humidity Pressure Visibility Wind Dir Wind Speed Gust Speed Precip Events Conditions
12:15 AM 66.2 °F 50.0 °F 56% 30.09 in 10.0 mi SSE 3.5 mph - N/A   Clear
12:35 AM 64.4 °F 48.2 °F 56% 30.10 in 10.0 mi Calm Calm - N/A   Clear
12:55 AM 64.4 °F 51.8 °F 64% 30.10 in 10.0 mi Calm Calm - N/A   Clear
1:15 AM 62.6 °F 53.6 °F 72% 30.09 in 10.0 mi Calm Calm - N/A   Clear
1:35 AM 62.6 °F 50.0 °F 63% 30.09 in 10.0 mi Calm Calm - N/A   Clear
1:55 AM 60.8 °F 50.0 °F 68% 30.09 in 10.0 mi Calm Calm - N/A   Clear
2:15 AM 59.0 °F 50.0 °F 72% 30.09 in 10.0 mi SSW 6.9 mph - N/A   Clear
2:35 AM 59.0 °F 50.0 °F 72% 30.08 in 10.0 mi SW 8.1 mph - N/A   Clear
2:55 AM 59.0 °F 50.0 °F 72% 30.07 in 10.0 mi SW 9.2 mph - N/A   Clear
3:15 AM 59.0 °F 50.0 °F 72% 30.06 in 10.0 mi WSW 5.8 mph - N/A   Clear
3:35 AM 59.0 °F 50.0 °F 72% 30.06 in 10.0 mi Calm Calm - N/A   Clear
3:55 AM 57.2 °F 50.0 °F 77% 30.06 in 10.0 mi Calm Calm - N/A   Clear
4:15 AM 57.2 °F 50.0 °F 77% 30.07 in 10.0 mi South 5.8 mph - N/A   Clear
4:35 AM 57.2 °F 50.0 °F 77% 30.07 in 10.0 mi Calm Calm - N/A   Clear
4:55 AM 57.2 °F 50.0 °F 77% 30.07 in 10.0 mi Calm Calm - N/A   Clear
5:15 AM 55.4 °F 50.0 °F 82% 30.07 in 10.0 mi Calm Calm - N/A   Clear
5:35 AM 53.6 °F 48.2 °F 82% 30.07 in 10.0 mi SSE 5.8 mph - N/A   Clear
5:55 AM 53.6 °F 48.2 °F 82% 30.07 in 10.0 mi South 4.6 mph - N/A   Clear
6:15 AM 53.6 °F 50.0 °F 88% 30.07 in 10.0 mi SSW 3.5 mph - N/A   Clear
6:35 AM 53.6 °F 48.2 °F 82% 30.07 in 10.0 mi SSW 5.8 mph - N/A   Clear
6:55 AM 55.4 °F 48.2 °F 77% 30.07 in 10.0 mi SW 3.5 mph - N/A   Clear
7:15 AM 57.2 °F 50.0 °F 77% 30.08 in 10.0 mi Calm Calm - N/A   Clear
7:35 AM 59.0 °F 50.0 °F 72% 30.08 in 10.0 mi Calm Calm - N/A   Clear
7:55 AM 60.8 °F 50.0 °F 68% 30.08 in 10.0 mi Calm Calm - N/A   Clear
8:15 AM 62.6 °F 50.0 °F 63% 30.08 in 10.0 mi Calm Calm - N/A   Clear
8:35 AM 66.2 °F 48.2 °F 52% 30.09 in 10.0 mi Calm Calm - N/A   Clear
8:55 AM 68.0 °F 50.0 °F 52% 30.08 in 10.0 mi Calm Calm - N/A   Clear
9:15 AM 68.0 °F 50.0 °F 52% 30.08 in 10.0 mi Calm Calm - N/A   Clear
9:35 AM 69.8 °F 50.0 °F 49% 30.07 in 10.0 mi Calm Calm - N/A   Clear
9:55 AM 69.8 °F 50.0 °F 49% 30.07 in 10.0 mi NNW 5.8 mph - N/A   Clear
10:15 AM 71.6 °F 50.0 °F 46% 30.07 in 10.0 mi Calm Calm - N/A   Clear
10:35 AM 73.4 °F 50.0 °F 44% 30.06 in 10.0 mi North 6.9 mph - N/A   Clear
10:55 AM 73.4 °F 50.0 °F 44% 30.06 in 10.0 mi Calm Calm - N/A   Clear
11:15 AM 75.2 °F 50.0 °F 41% 30.05 in 10.0 mi Calm Calm - N/A   Clear
11:35 AM 75.2 °F 50.0 °F 41% 30.04 in 10.0 mi Calm Calm - N/A   Clear
11:55 AM 75.2 °F 48.2 °F 38% 30.04 in 10.0 mi NE 6.9 mph - N/A   Clear
12:15 PM 77.0 °F 50.0 °F 39% 30.03 in 10.0 mi North 6.9 mph - N/A   Clear
12:35 PM 77.0 °F 48.2 °F 36% 30.03 in 10.0 mi Calm Calm - N/A   Clear
12:55 PM 78.8 °F 48.2 °F 34% 30.02 in 10.0 mi NE 3.5 mph - N/A   Clear
1:15 PM 80.6 °F 48.2 °F 32% 30.01 in 10.0 mi ENE 3.5 mph - N/A   Clear
1:35 PM 80.6 °F 48.2 °F 32% 30.01 in 10.0 mi NNW 9.2 mph - N/A   Clear
1:55 PM 82.4 °F 46.4 °F 28% 30.00 in 10.0 mi NNE 4.6 mph - N/A   Clear
2:15 PM 82.4 °F 46.4 °F 28% 29.99 in 10.0 mi North 8.1 mph - N/A   Clear
2:35 PM 82.4 °F 46.4 °F 28% 29.99 in 10.0 mi North 8.1 mph - N/A   Clear
2:55 PM - - N/A% 29.97 in 10.0 mi NW 8.1 mph - N/A   Clear
3:15 PM 84.2 °F 46.4 °F 27% 29.97 in 10.0 mi NNE 8.1 mph 17.3 mph N/A   Clear
3:35 PM 84.2 °F 46.4 °F 27% 29.96 in 10.0 mi West 4.6 mph - N/A   Clear
3:55 PM 84.2 °F 44.6 °F 25% 29.95 in 10.0 mi North 8.1 mph - N/A   Clear
4:15 PM 84.2 °F 42.8 °F 23% 29.95 in 10.0 mi NNE 8.1 mph - N/A   Clear
4:35 PM 84.2 °F 42.8 °F 23% 29.94 in 9.0 mi North 5.8 mph - N/A   Clear
4:55 PM 86.0 °F 42.8 °F 22% 29.94 in 10.0 mi NNW 6.9 mph - N/A   Clear
5:15 PM 86.0 °F 42.8 °F 22% 29.93 in 10.0 mi North 6.9 mph 16.1 mph N/A   Clear
5:35 PM 86.0 °F 42.8 °F 22% 29.92 in 10.0 mi NNW 13.8 mph - N/A   Clear
5:55 PM 84.2 °F 44.6 °F 25% 29.92 in 10.0 mi North 12.7 mph - N/A   Clear
6:15 PM 84.2 °F 42.8 °F 23% 29.92 in 10.0 mi NNW 11.5 mph - N/A   Clear
6:35 PM 84.2 °F 41.0 °F 22% 29.91 in 10.0 mi North 10.4 mph 17.3 mph N/A   Clear
6:55 PM 84.2 °F 42.8 °F 23% 29.91 in 10.0 mi NNW 9.2 mph 16.1 mph N/A   Clear
7:15 PM 82.4 °F 42.8 °F 25% 29.91 in 10.0 mi North 8.1 mph - N/A   Clear
7:35 PM 82.4 °F 42.8 °F 25% 29.92 in 10.0 mi North 6.9 mph - N/A   Clear
7:55 PM 80.6 °F 42.8 °F 26% 29.92 in 10.0 mi North 6.9 mph - N/A   Clear
8:15 PM 78.8 °F 44.6 °F 30% 29.92 in 10.0 mi North 5.8 mph - N/A   Clear
8:35 PM 77.0 °F 44.6 °F 32% 29.92 in 10.0 mi North 5.8 mph - N/A   Clear
9:15 PM 75.2 °F 44.6 °F 34% 29.93 in 10.0 mi Calm Calm - N/A   Clear
9:35 PM 71.6 °F 44.6 °F 38% 29.93 in 10.0 mi Calm Calm - N/A   Clear
9:55 PM 71.6 °F 46.4 °F 41% 29.93 in 10.0 mi Calm Calm - N/A   Clear
10:15 PM 71.6 °F 44.6 °F 38% 29.94 in 10.0 mi Calm Calm - N/A   Clear
10:35 PM 71.6 °F 44.6 °F 38% 29.94 in 10.0 mi Calm Calm - N/A   Clear
10:55 PM 68.0 °F 46.4 °F 46% 29.94 in 10.0 mi Calm Calm - N/A   Clear
11:15 PM 66.2 °F 44.6 °F 46% 29.94 in 10.0 mi Calm Calm - N/A   Clear
11:35 PM 66.2 °F 46.4 °F 49% 29.94 in 10.0 mi West 3.5 mph - N/A   Clear
11:55 PM 66.2 °F 48.2 °F 52% 29.94 in 10.0 mi Calm Calm - N/A   Clear